sat.trackr.live / text

‹ back to catalog

QIANFAN-38

NORAD 62239 · 2024-232C

PAYLOAD ACTIVE UNKNOWN

§ Identity

Operator
Country
PRC
Launch date
2024-12-05
Launch site
TAISC
Launch vehicle
Mass (kg)
RCS (m²)

External: N2YO · Heavens-Above · Gunter

§ Orbital elements

Epoch: 2026-05-25T00:44:14.385120Z

Period
106.59 min
Inclination
89.0101°
Eccentricity
0.0016580
Mean motion
13.51009693 rev/d
Perigee alt
1,056.2 km
Apogee alt
1,080.9 km
Semi-major
7,446.7 km
B*
1.4385e-4
RAAN
24.8346°
Arg perigee
83.0259°
Mean anomaly
277.2777°
Rev number
12,127

§ Raw data

QIANFAN-381 62239U 24232C   26145.03072205  .00000105  00000+0  14385-3 0  99912 62239  89.0101  24.8346 0016580  83.0259 277.2777 13.51009693121276

JSON: /api/v1/satellites/62239 · /tle

For live sub-satellite position, see the globe view (requires WebGL).

§ Visibility from observer

Set your observer location to see the next 7 days of passes ≥ 10°. The values pass through the URL so the page stays shareable.

No JS? Fill the form by hand. The geolocation button needs JavaScript.